When you browse on this site, cookies collect data to enhance your experience and personalize the content and advertising you see.
Visit our Privacy Policy to learn more. By continuing to use the site, you agree to this use of cookies and data.
  • In Hungary
  • List of Countries
  • For 7 days
  • Water Temperature
  • Weather Map
  • News
  • Weather Widgets
  • user-avatar
    Login

    Hourly Weather Malynivka

    Today, 12 November, Tuesday

    Time Temperature Precipitation Wind Pressure Humidity
    00:00 +12°C° 0 mm 1 mps 757 mmHg 88%
    01:00 +11°C° 0 mm 1 mps 757 mmHg 88%
    02:00 +11°C° 0 mm 1 mps 757 mmHg 89%
    03:00 +11°C° 0 mm 1 mps 758 mmHg 90%
    04:00 +11°C° 0 mm 1 mps 758 mmHg 90%
    05:00 +10°C° 0 mm 1 mps 758 mmHg 90%
    06:00 +11°C° 0 mm 1 mps 758 mmHg 90%
    07:00 +10°C° 0 mm 2 mps 759 mmHg 89%
    08:00 +10°C° 0 mm 2 mps 759 mmHg 89%
    09:00 +13°C° 0 mm 2 mps 759 mmHg 81%
    10:00 +14°C° 0 mm 2 mps 759 mmHg 74%
    11:00 +16°C° 0 mm 2 mps 759 mmHg 66%
    12:00 +17°C° 0 mm 2 mps 759 mmHg 62%
    13:00 +17°C° 0 mm 2 mps 759 mmHg 58%
    14:00 +18°C° 0 mm 2 mps 759 mmHg 54%
    15:00 +17°C° 0 mm 3 mps 759 mmHg 60%
    16:00 +14°C° 0 mm 3 mps 759 mmHg 66%
    17:00 +13°C° 0 mm 3 mps 759 mmHg 72%
    18:00 +12°C° 0 mm 3 mps 759 mmHg 75%
    19:00 +12°C° 0 mm 3 mps 759 mmHg 79%
    20:00 +11°C° 0 mm 3 mps 759 mmHg 83%
    21:00 +11°C° 0 mm 3 mps 759 mmHg 85%
    22:00 +11°C° 0 mm 3 mps 759 mmHg 86%
    23:00 +11°C° 0 mm 3 mps 759 mmHg 88%

    Tomorrow, 13 November, Wednesday

    Time Temperature Precipitation Wind Pressure Humidity
    00:00 +10°C° 0 mm 3 mps 759 mmHg 88%
    01:00 +10°C° 0 mm 3 mps 759 mmHg 88%
    02:00 +10°C° 0 mm 4 mps 759 mmHg 89%
    03:00 +10°C° 0 mm 4 mps 759 mmHg 89%
    04:00 +10°C° 0 mm 4 mps 758 mmHg 90%
    05:00 +10°C° 0 mm 4 mps 758 mmHg 91%
    06:00 +9°C° 0 mm 5 mps 758 mmHg 89%
    07:00 +9°C° 0 mm 5 mps 758 mmHg 87%
    08:00 +10°C° 0 mm 5 mps 758 mmHg 85%
    09:00 +13°C° 0 mm 6 mps 758 mmHg 75%
    10:00 +14°C° 0 mm 6 mps 758 mmHg 64%
    11:00 +16°C° 0 mm 6 mps 758 mmHg 54%
    12:00 +17°C° 0 mm 7 mps 758 mmHg 51%
    13:00 +17°C° 0 mm 7 mps 757 mmHg 48%
    14:00 +18°C° 0 mm 7 mps 757 mmHg 45%
    15:00 +17°C° 0 mm 6 mps 757 mmHg 49%
    16:00 +15°C° 0 mm 6 mps 757 mmHg 54%
    17:00 +14°C° 0 mm 5 mps 757 mmHg 58%
    18:00 +13°C° 0 mm 5 mps 757 mmHg 60%
    19:00 +13°C° 0 mm 5 mps 757 mmHg 63%
    20:00 +11°C° 0 mm 6 mps 757 mmHg 65%
    21:00 +11°C° 0 mm 6 mps 757 mmHg 67%
    22:00 +10°C° 0 mm 6 mps 757 mmHg 70%
    23:00 +10°C° 0 mm 6 mps 757 mmHg 72%

    Day after tomorrow, 14 November, Thursday

    Time Temperature Precipitation Wind Pressure Humidity
    00:00 +9°C° 0 mm 6 mps 757 mmHg 74%
    01:00 +9°C° 0 mm 6 mps 757 mmHg 76%
    02:00 +9°C° 0 mm 6 mps 756 mmHg 77%
    03:00 +8°C° 0 mm 6 mps 756 mmHg 78%
    04:00 +8°C° 0 mm 6 mps 756 mmHg 79%
    05:00 +8°C° 0 mm 6 mps 756 mmHg 80%
    06:00 +8°C° 0 mm 7 mps 756 mmHg 79%
    07:00 +8°C° 0 mm 7 mps 756 mmHg 78%
    08:00 +7°C° 0 mm 8 mps 756 mmHg 76%
    09:00 +9°C° 0 mm 8 mps 756 mmHg 69%
    10:00 +10°C° 0 mm 9 mps 756 mmHg 62%
    11:00 +12°C° 0 mm 9 mps 756 mmHg 54%
    12:00 +12°C° 0 mm 9 mps 756 mmHg 51%
    13:00 +13°C° 0 mm 8 mps 756 mmHg 48%
    14:00 +13°C° 0 mm 8 mps 755 mmHg 45%
    15:00 +12°C° 0 mm 7 mps 755 mmHg 47%
    16:00 +11°C° 0 mm 7 mps 755 mmHg 49%
    17:00 +10°C° 0 mm 6 mps 755 mmHg 50%
    18:00 +9°C° 0 mm 6 mps 755 mmHg 52%
    19:00 +9°C° 0 mm 7 mps 756 mmHg 53%
    20:00 +8°C° 0 mm 7 mps 756 mmHg 55%
    21:00 +8°C° 0 mm 7 mps 756 mmHg 57%
    22:00 +8°C° 0 mm 7 mps 756 mmHg 58%
    23:00 +6°C° 0 mm 7 mps 756 mmHg 60%

    15 November, Friday

    Time Temperature Precipitation Wind Pressure Humidity
    00:00 +7°C° 0 mm 6 mps 756 mmHg 62%
    01:00 +7°C° 0 mm 6 mps 756 mmHg 64%
    02:00 +5°C° 0 mm 6 mps 756 mmHg 66%
    03:00 +5°C° 0 mm 6 mps 756 mmHg 67%
    04:00 +5°C° 0 mm 6 mps 756 mmHg 68%
    05:00 +5°C° 0 mm 5 mps 756 mmHg 70%
    06:00 +5°C° 0 mm 5 mps 756 mmHg 70%
    07:00 +5°C° 0 mm 5 mps 757 mmHg 70%
    08:00 +5°C° 0 mm 5 mps 757 mmHg 69%
    09:00 +6°C° 0 mm 5 mps 757 mmHg 66%
    10:00 +7°C° 0 mm 5 mps 757 mmHg 62%
    11:00 +8°C° 0 mm 5 mps 757 mmHg 58%
    12:00 +9°C° 0 mm 5 mps 757 mmHg 56%
    13:00 +10°C° 0 mm 5 mps 757 mmHg 55%
    14:00 +10°C° 0 mm 5 mps 757 mmHg 53%
    15:00 +10°C° 0 mm 4 mps 757 mmHg 57%
    16:00 +8°C° 0 mm 4 mps 758 mmHg 60%
    17:00 +9°C° 0 mm 3 mps 758 mmHg 64%
    18:00 +8°C° 0 mm 3 mps 758 mmHg 65%
    19:00 +8°C° 0 mm 3 mps 758 mmHg 66%
    20:00 +7°C° 0 mm 3 mps 759 mmHg 68%
    21:00 +7°C° 0 mm 3 mps 759 mmHg 69%
    22:00 +7°C° 0 mm 3 mps 759 mmHg 70%
    23:00 +5°C° 0 mm 3 mps 759 mmHg 71%

    16 November, Saturday

    Time Temperature Precipitation Wind Pressure Humidity
    00:00 +5°C° 0 mm 3 mps 759 mmHg 73%
    01:00 +5°C° 0 mm 3 mps 759 mmHg 75%
    02:00 +4°C° 0 mm 3 mps 760 mmHg 77%
    03:00 +4°C° 0 mm 3 mps 760 mmHg 79%
    04:00 +4°C° 0 mm 3 mps 760 mmHg 81%
    05:00 +3°C° 0 mm 3 mps 760 mmHg 83%
    06:00 +3°C° 0 mm 3 mps 760 mmHg 82%
    07:00 +3°C° 0 mm 4 mps 760 mmHg 82%
    08:00 +3°C° 0 mm 4 mps 760 mmHg 81%
    09:00 +4°C° 0 mm 4 mps 761 mmHg 75%
    10:00 +6°C° 0 mm 4 mps 761 mmHg 68%
    11:00 +7°C° 0 mm 5 mps 761 mmHg 62%
    12:00 +7°C° 0 mm 5 mps 761 mmHg 59%
    13:00 +8°C° 0 mm 5 mps 760 mmHg 56%
    14:00 +8°C° 0 mm 5 mps 760 mmHg 54%
    15:00 +7°C° 0 mm 4 mps 760 mmHg 57%
    16:00 +7°C° 0 mm 4 mps 760 mmHg 60%
    17:00 +7°C° 0 mm 3 mps 761 mmHg 63%
    18:00 +5°C° 0 mm 3 mps 761 mmHg 64%
    19:00 +5°C° 0 mm 4 mps 761 mmHg 66%
    20:00 +5°C° 0 mm 4 mps 761 mmHg 67%
    21:00 +5°C° 0 mm 4 mps 761 mmHg 69%
    22:00 +4°C° 0 mm 4 mps 761 mmHg 70%
    23:00 +4°C° 0 mm 4 mps 761 mmHg 72%

    17 November, Sunday

    Time Temperature Precipitation Wind Pressure Humidity
    00:00 +4°C° 0 mm 4 mps 761 mmHg 74%
    01:00 +3°C° 0 mm 4 mps 761 mmHg 76%
    02:00 +3°C° 0 mm 4 mps 761 mmHg 78%
    03:00 +3°C° 0 mm 4 mps 761 mmHg 79%
    04:00 +1°C° 0 mm 4 mps 761 mmHg 81%
    05:00 +1°C° 0 mm 4 mps 761 mmHg 83%
    06:00 +1°C° 0 mm 5 mps 761 mmHg 84%
    07:00 +1°C° 0 mm 5 mps 762 mmHg 84%
    08:00 +1°C° 0 mm 5 mps 762 mmHg 85%
    09:00 +3°C° 0 mm 5 mps 762 mmHg 79%
    10:00 +4°C° 0 mm 6 mps 762 mmHg 73%
    11:00 +7°C° 0 mm 6 mps 762 mmHg 67%
    12:00 +8°C° 0 mm 6 mps 762 mmHg 64%
    13:00 +8°C° 0 mm 6 mps 762 mmHg 60%
    14:00 +9°C° 0 mm 5 mps 762 mmHg 57%
    15:00 +8°C° 0 mm 5 mps 762 mmHg 60%
    16:00 +7°C° 0 mm 5 mps 762 mmHg 63%
    17:00 +6°C° 0 mm 4 mps 761 mmHg 66%
    18:00 +6°C° 0 mm 4 mps 762 mmHg 66%
    19:00 +6°C° 0 mm 4 mps 762 mmHg 67%
    20:00 +5°C° 0 mm 4 mps 762 mmHg 67%
    21:00 +5°C° 0 mm 4 mps 762 mmHg 70%
    22:00 +4°C° 0 mm 4 mps 762 mmHg 73%
    23:00 +4°C° 0 mm 4 mps 762 mmHg 77%
    Show more